Time,TemperatureF,DewpointF,PressureIn,WindDirection,WindDirectionDegrees,WindSpeedMPH,WindSpeedGustMPH,Humidity,HourlyPrecipIn,Conditions,Clouds,dailyrainin,SoftwareType,DateUTC
2013-07-13 00:22:00,65.0,62.0,-100.00,ENE,61,3.0,4.0,91,0.00,,,0.06,,2013-07-13 04:22:00,
2013-07-13 00:31:00,65.0,63.0,-100.00,NNE,17,2.0,4.0,93,0.00,,,0.03,,2013-07-13 04:31:00,
2013-07-13 00:32:00,65.0,63.0,-100.00,East,83,3.0,4.0,93,0.00,,,0.03,,2013-07-13 04:32:00,
2013-07-13 00:44:00,65.0,63.0,-100.00,East,83,3.0,4.0,93,0.00,,,0.03,,2013-07-13 04:44:00,
2013-07-13 01:01:00,65.0,63.0,-100.00,NNE,17,2.0,4.0,93,0.00,,,0.03,,2013-07-13 05:01:00,
2013-07-13 01:11:00,65.0,63.0,-100.00,NNE,17,2.0,4.0,93,0.00,,,0.03,,2013-07-13 05:11:00,
2013-07-13 01:22:00,65.0,63.0,-100.00,NNE,17,2.0,4.0,93,0.00,,,0.03,,2013-07-13 05:22:00,
2013-07-13 01:42:00,65.0,63.0,-100.00,NNE,31,2.0,3.0,93,0.00,,,0.03,,2013-07-13 05:42:00,
2013-07-13 02:02:00,65.0,63.0,-100.00,NNE,16,2.0,3.0,93,0.00,,,0.03,,2013-07-13 06:02:00,
2013-07-13 02:11:00,65.0,63.0,-100.00,NNE,16,2.0,3.0,93,0.00,,,0.03,,2013-07-13 06:11:00,
2013-07-13 02:22:00,65.0,63.0,-100.00,NNE,16,2.0,3.0,93,0.00,,,0.03,,2013-07-13 06:22:00,
2013-07-13 02:52:00,65.0,63.0,-100.00,North,11,1.0,2.0,92,0.00,,,0.00,,2013-07-13 06:52:00,
2013-07-13 03:02:00,65.0,63.0,-100.00,NNW,343,2.0,3.0,93,0.00,,,0.00,,2013-07-13 07:02:00,
2013-07-13 03:11:00,65.0,63.0,-100.00,NNW,343,2.0,3.0,93,0.00,,,0.00,,2013-07-13 07:11:00,
2013-07-13 03:22:00,65.0,63.0,-100.00,NNW,343,2.0,3.0,93,0.00,,,0.00,,2013-07-13 07:22:00,
2013-07-13 03:33:00,65.0,63.0,-100.00,NNE,23,1.0,2.0,93,0.00,,,0.00,,2013-07-13 07:33:00,
2013-07-13 03:44:00,65.0,63.0,-100.00,North,359,1.0,2.0,93,0.00,,,0.00,,2013-07-13 07:44:00,
2013-07-13 03:53:00,65.0,63.0,-100.00,North,359,1.0,2.0,93,0.00,,,0.00,,2013-07-13 07:53:00,
2013-07-13 04:02:00,65.0,63.0,-100.00,North,359,1.0,2.0,93,0.00,,,0.00,,2013-07-13 08:02:00,
2013-07-13 04:22:00,65.0,63.0,-100.00,NE,42,3.0,4.0,93,0.00,,,0.00,,2013-07-13 08:22:00,
2013-07-13 04:33:00,65.0,63.0,-100.00,NE,49,3.0,5.0,94,0.00,,,0.00,,2013-07-13 08:33:00,
2013-07-13 04:43:00,65.0,63.0,-100.00,NE,49,3.0,5.0,94,0.00,,,0.00,,2013-07-13 08:43:00,
2013-07-13 04:52:00,65.0,63.0,-100.00,ESE,102,1.0,2.0,94,0.00,,,0.00,,2013-07-13 08:52:00,
2013-07-13 05:02:00,65.0,63.0,-100.00,NNE,24,2.0,2.0,94,0.00,,,0.00,,2013-07-13 09:02:00,
2013-07-13 05:11:00,65.0,63.0,-100.00,NNE,24,2.0,2.0,94,0.00,,,0.00,,2013-07-13 09:11:00,
2013-07-13 05:22:00,65.0,63.0,-100.00,NNE,24,2.0,2.0,94,0.00,,,0.00,,2013-07-13 09:22:00,
2013-07-13 05:33:00,65.0,63.0,-100.00,NNE,18,2.0,2.0,94,0.00,,,0.00,,2013-07-13 09:33:00,
2013-07-13 05:43:00,65.0,63.0,-100.00,NNE,18,2.0,2.0,94,0.00,,,0.00,,2013-07-13 09:43:00,
2013-07-13 06:01:00,65.0,63.0,-100.00,NW,318,2.0,2.0,95,0.00,,,0.00,,2013-07-13 10:01:00,
2013-07-13 06:11:00,65.0,63.0,-100.00,NW,318,2.0,2.0,95,0.00,,,0.00,,2013-07-13 10:11:00,
2013-07-13 06:22:00,65.0,63.0,-100.00,NW,318,2.0,2.0,95,0.00,,,0.00,,2013-07-13 10:22:00,
2013-07-13 06:32:00,65.0,63.0,-100.00,NNE,18,2.0,3.0,94,0.00,,,0.00,,2013-07-13 10:32:00,
2013-07-13 06:43:00,65.0,63.0,-100.00,NNE,18,2.0,3.0,94,0.00,,,0.00,,2013-07-13 10:43:00,
2013-07-13 06:51:00,65.0,64.0,-100.00,North,359,2.0,3.0,94,0.00,,,0.00,,2013-07-13 10:51:00,
2013-07-13 06:52:00,65.0,63.0,-100.00,North,353,2.0,4.0,94,0.00,,,0.00,,2013-07-13 10:52:00,
2013-07-13 07:02:00,65.0,63.0,-100.00,NNE,17,2.0,3.0,93,0.00,,,0.00,,2013-07-13 11:02:00,
2013-07-13 07:11:00,65.0,63.0,-100.00,NNE,17,2.0,3.0,93,0.00,,,0.00,,2013-07-13 11:11:00,
2013-07-13 07:22:00,65.0,63.0,-100.00,NNE,17,2.0,3.0,93,0.00,,,0.00,,2013-07-13 11:22:00,
2013-07-13 07:32:00,65.0,64.0,-100.00,North,359,2.0,3.0,94,0.00,,,0.00,,2013-07-13 11:32:00,
2013-07-13 07:43:00,65.0,64.0,-100.00,North,359,2.0,3.0,94,0.00,,,0.00,,2013-07-13 11:43:00,
2013-07-13 08:02:00,66.0,64.0,-100.00,NE,42,3.0,4.0,93,0.00,,,0.00,,2013-07-13 12:02:00,
2013-07-13 08:12:00,66.0,64.0,-100.00,NE,42,3.0,4.0,93,0.00,,,0.00,,2013-07-13 12:12:00,
2013-07-13 08:22:00,66.0,64.0,-100.00,NE,42,3.0,4.0,93,0.00,,,0.00,,2013-07-13 12:22:00,
2013-07-13 09:01:00,67.0,64.0,-100.00,NE,45,1.0,3.0,90,0.00,,,0.00,,2013-07-13 13:01:00,
2013-07-13 09:12:00,67.0,64.0,-100.00,NE,49,2.0,3.0,89,0.00,,,0.00,,2013-07-13 13:12:00,
2013-07-13 09:22:00,67.0,64.0,-100.00,NE,49,2.0,3.0,89,0.00,,,0.00,,2013-07-13 13:22:00,
2013-07-13 09:43:00,67.0,64.0,-100.00,East,95,1.0,2.0,90,0.00,,,0.00,,2013-07-13 13:43:00,
2013-07-13 10:02:00,67.0,65.0,-100.00,ENE,59,2.0,3.0,91,0.00,,,0.00,,2013-07-13 14:02:00,
2013-07-13 10:11:00,68.0,65.0,-100.00,NNE,32,2.0,4.0,90,0.00,,,0.00,,2013-07-13 14:11:00,
2013-07-13 10:22:00,68.0,65.0,-100.00,NNE,32,2.0,4.0,90,0.00,,,0.00,,2013-07-13 14:22:00,
2013-07-13 10:32:00,68.0,64.0,-100.00,ENE,76,2.0,4.0,87,0.00,,,0.00,,2013-07-13 14:32:00,
2013-07-13 10:43:00,68.0,64.0,-100.00,ENE,76,2.0,4.0,87,0.00,,,0.00,,2013-07-13 14:43:00,
2013-07-13 11:02:00,70.0,66.0,-100.00,NNE,28,1.0,4.0,88,0.00,,,0.00,,2013-07-13 15:02:00,
2013-07-13 11:12:00,70.0,66.0,-100.00,NNE,28,1.0,4.0,88,0.00,,,0.00,,2013-07-13 15:12:00,
2013-07-13 11:22:00,70.0,66.0,-100.00,NNE,28,1.0,4.0,88,0.00,,,0.00,,2013-07-13 15:22:00,
2013-07-13 11:33:00,70.0,65.0,-100.00,ENE,64,4.0,5.0,84,0.00,,,0.00,,2013-07-13 15:33:00,
2013-07-13 11:43:00,70.0,65.0,-100.00,ENE,64,4.0,5.0,84,0.00,,,0.00,,2013-07-13 15:43:00,
2013-07-13 12:02:00,71.0,65.0,-100.00,ESE,106,3.0,5.0,82,0.00,,,0.00,,2013-07-13 16:02:00,
2013-07-13 12:11:00,72.0,65.0,-100.00,NE,41,5.0,7.0,78,0.00,,,0.00,,2013-07-13 16:11:00,
2013-07-13 12:12:00,71.0,65.0,-100.00,ESE,106,3.0,5.0,82,0.00,,,0.00,,2013-07-13 16:12:00,
2013-07-13 12:22:00,71.0,65.0,-100.00,ESE,106,3.0,5.0,82,0.00,,,0.00,,2013-07-13 16:22:00,
2013-07-13 12:33:00,71.0,65.0,-100.00,ENE,59,3.0,5.0,84,0.00,,,0.00,,2013-07-13 16:33:00,
2013-07-13 12:43:00,71.0,65.0,-100.00,ENE,59,3.0,5.0,84,0.00,,,0.00,,2013-07-13 16:43:00,
2013-07-13 12:53:00,72.0,65.0,-100.00,NE,41,5.0,7.0,78,0.00,,,0.00,,2013-07-13 16:53:00,
2013-07-13 13:01:00,72.0,65.0,-100.00,NE,41,5.0,7.0,78,0.00,,,0.00,,2013-07-13 17:01:00,
2013-07-13 13:33:00,74.0,65.0,-100.00,East,89,4.0,5.0,74,0.00,,,0.00,,2013-07-13 17:33:00,
2013-07-13 13:43:00,74.0,65.0,-100.00,East,89,4.0,5.0,74,0.00,,,0.00,,2013-07-13 17:43:00,
2013-07-13 13:51:00,75.0,67.0,-100.00,SE,133,5.0,7.0,76,0.00,,,0.00,,2013-07-13 17:51:00,
2013-07-13 14:02:00,75.0,66.0,-100.00,NNE,32,2.0,4.0,74,0.00,,,0.00,,2013-07-13 18:02:00,
2013-07-13 14:11:00,75.0,66.0,-100.00,NNE,32,2.0,4.0,74,0.00,,,0.00,,2013-07-13 18:11:00,
2013-07-13 14:22:00,75.0,66.0,-100.00,NNE,32,2.0,4.0,74,0.00,,,0.00,,2013-07-13 18:22:00,
2013-07-13 14:31:00,74.0,66.0,-100.00,ESE,106,4.0,6.0,75,0.00,,,0.00,,2013-07-13 18:31:00,
2013-07-13 14:32:00,75.0,67.0,-100.00,SE,133,5.0,7.0,76,0.00,,,0.00,,2013-07-13 18:32:00,
2013-07-13 14:44:00,75.0,67.0,-100.00,SE,133,5.0,7.0,76,0.00,,,0.00,,2013-07-13 18:44:00,
2013-07-13 15:02:00,74.0,66.0,-100.00,ESE,106,4.0,6.0,75,0.00,,,0.00,,2013-07-13 19:02:00,
2013-07-13 15:11:00,74.0,66.0,-100.00,ESE,106,4.0,6.0,75,0.00,,,0.00,,2013-07-13 19:11:00,
2013-07-13 15:22:00,74.0,66.0,-100.00,ESE,106,4.0,6.0,75,0.00,,,0.00,,2013-07-13 19:22:00,
2013-07-13 15:31:00,76.0,65.0,-100.00,East,97,4.0,7.0,69,0.00,,,0.00,,2013-07-13 19:31:00,
2013-07-13 16:02:00,76.0,65.0,-100.00,East,97,4.0,7.0,69,0.00,,,0.00,,2013-07-13 20:02:00,
2013-07-13 16:11:00,76.0,65.0,-100.00,East,97,4.0,7.0,69,0.00,,,0.00,,2013-07-13 20:11:00,
2013-07-13 16:22:00,76.0,65.0,-100.00,East,97,4.0,7.0,69,0.00,,,0.00,,2013-07-13 20:22:00,
2013-07-13 16:43:00,75.0,66.0,-100.00,ESE,114,5.0,7.0,75,0.00,,,0.00,,2013-07-13 20:43:00,
2013-07-13 16:53:00,75.0,66.0,-100.00,ESE,114,5.0,7.0,75,0.00,,,0.00,,2013-07-13 20:53:00,
2013-07-13 17:02:00,76.0,67.0,-100.00,SE,124,3.0,4.0,75,0.00,,,0.00,,2013-07-13 21:02:00,
2013-07-13 17:12:00,76.0,67.0,-100.00,SE,124,3.0,4.0,75,0.00,,,0.00,,2013-07-13 21:12:00,
2013-07-13 17:22:00,76.0,67.0,-100.00,SE,124,3.0,4.0,75,0.00,,,0.00,,2013-07-13 21:22:00,
2013-07-13 17:32:00,76.0,67.0,-100.00,ENE,73,3.0,6.0,73,0.00,,,0.00,,2013-07-13 21:32:00,
2013-07-13 17:43:00,76.0,68.0,-100.00,SE,130,4.0,6.0,75,0.00,,,0.00,,2013-07-13 21:43:00,
2013-07-13 18:01:00,76.0,68.0,-100.00,East,97,4.0,6.0,76,0.00,,,0.00,,2013-07-13 22:01:00,
2013-07-13 18:12:00,76.0,68.0,-100.00,East,97,4.0,6.0,76,0.00,,,0.00,,2013-07-13 22:12:00,
2013-07-13 18:22:00,76.0,68.0,-100.00,East,97,4.0,6.0,76,0.00,,,0.00,,2013-07-13 22:22:00,
2013-07-13 18:31:00,75.0,68.0,-100.00,East,99,3.0,4.0,77,0.00,,,0.00,,2013-07-13 22:31:00,
2013-07-13 18:32:00,76.0,68.0,-100.00,ENE,66,4.0,6.0,76,0.00,,,0.00,,2013-07-13 22:32:00,
2013-07-13 18:43:00,76.0,68.0,-100.00,ENE,66,4.0,6.0,76,0.00,,,0.00,,2013-07-13 22:43:00,
2013-07-13 18:53:00,75.0,67.0,-100.00,East,99,4.0,5.0,76,0.00,,,0.00,,2013-07-13 22:53:00,
2013-07-13 19:02:00,75.0,68.0,-100.00,East,99,3.0,4.0,77,0.00,,,0.00,,2013-07-13 23:02:00,
2013-07-13 19:11:00,75.0,68.0,-100.00,East,99,3.0,4.0,77,0.00,,,0.00,,2013-07-13 23:11:00,
2013-07-13 19:22:00,75.0,68.0,-100.00,East,99,3.0,4.0,77,0.00,,,0.00,,2013-07-13 23:22:00,
2013-07-13 19:42:00,73.0,68.0,-100.00,ENE,61,4.0,5.0,85,0.75,,,0.06,,2013-07-13 23:42:00,
2013-07-13 19:53:00,73.0,68.0,-100.00,ENE,61,4.0,5.0,85,0.75,,,0.06,,2013-07-13 23:53:00,
2013-07-13 20:01:00,71.0,69.0,-100.00,ENE,78,3.0,4.0,91,0.01,,,0.18,,2013-07-14 00:01:00,
2013-07-13 20:12:00,71.0,69.0,-100.00,ENE,78,3.0,4.0,91,0.01,,,0.18,,2013-07-14 00:12:00,
2013-07-13 20:33:00,71.0,69.0,-100.00,North,1,2.0,3.0,93,0.00,,,0.22,,2013-07-14 00:33:00,
2013-07-13 20:42:00,71.0,69.0,-100.00,North,1,2.0,3.0,93,0.00,,,0.22,,2013-07-14 00:42:00,
2013-07-13 20:53:00,72.0,69.0,-100.00,North,4,2.0,3.0,93,0.00,,,0.22,,2013-07-14 00:53:00,
2013-07-13 21:02:00,71.0,69.0,-100.00,NNE,31,2.0,3.0,93,0.00,,,0.22,,2013-07-14 01:02:00,
2013-07-13 21:11:00,71.0,69.0,-100.00,NNE,31,2.0,3.0,93,0.00,,,0.22,,2013-07-14 01:11:00,
2013-07-13 21:32:00,71.0,69.0,-100.00,North,354,3.0,4.0,94,0.00,,,0.22,,2013-07-14 01:32:00,
2013-07-13 21:43:00,71.0,69.0,-100.00,North,354,3.0,4.0,94,0.00,,,0.22,,2013-07-14 01:43:00,
2013-07-13 21:52:00,71.0,69.0,-100.00,ENE,65,1.0,2.0,94,0.34,,,0.23,,2013-07-14 01:52:00,
2013-07-13 22:02:00,71.0,69.0,-100.00,SSW,213,4.0,6.0,93,0.38,,,0.36,,2013-07-14 02:02:00,
2013-07-13 22:11:00,71.0,69.0,-100.00,SSW,213,4.0,6.0,93,0.38,,,0.36,,2013-07-14 02:11:00,
2013-07-13 22:22:00,71.0,69.0,-100.00,SSW,213,4.0,6.0,93,0.38,,,0.36,,2013-07-14 02:22:00,
2013-07-13 22:32:00,70.0,68.0,-100.00,SE,131,7.0,11.0,95,0.48,,,0.51,,2013-07-14 02:32:00,
2013-07-13 22:43:00,70.0,68.0,-100.00,SE,131,7.0,11.0,95,0.48,,,0.51,,2013-07-14 02:43:00,
2013-07-13 23:11:00,69.0,68.0,-100.00,NNE,17,1.0,2.0,96,0.30,,,0.73,,2013-07-14 03:11:00,
2013-07-13 23:32:00,69.0,68.0,-100.00,West,281,0.0,0.0,96,0.03,,,0.68,,2013-07-14 03:32:00,
2013-07-13 23:43:00,69.0,68.0,-100.00,NNE,17,1.0,2.0,96,0.30,,,0.73,,2013-07-14 03:43:00,
2013-07-13 23:53:00,69.0,68.0,-100.00,NNE,17,1.0,2.0,96,0.30,,,0.73,,2013-07-14 03:53:00,